Location: Treviso
(45.6669°N, 12.2430°E)
Time: 15:36:13
(UTC+01:00)

ISS - Visible Passes

Search period start: 20 January 2021 00:00
Search period end: 30 January 2021 00:00
Orbit: 418 x 419 km, 51.6° (Epoch: 20 January)

Date Brightness Start Highest point End Pass type
(mag) Time Alt. Az. Time Alt. Az. Time Alt. Az.
20 Jan -3.6 18:41:22 10° SW 18:44:40 55° SE 18:45:00 52° ESE visible
21 Jan -2.8 17:53:56 10° SSW 17:57:01 34° SE 17:59:23 15° E visible
21 Jan -1.7 19:30:29 10° W 19:32:21 28° W 19:32:21 28° W visible
22 Jan -3.6 18:42:36 10° WSW 18:45:56 66° NNW 18:46:40 48° NE visible
23 Jan -3.8 17:54:48 10° WSW 17:58:09 85° SSE 18:00:56 14° ENE visible
23 Jan -1.5 19:32:09 10° WNW 19:33:53 23° NW 19:33:53 23° NW visible
24 Jan -2.8 18:44:09 10° W 18:47:20 38° NNW 18:48:06 32° NNE visible
25 Jan -3.1 17:56:11 10° W 17:59:27 48° NNW 18:02:18 13° NE visible
25 Jan -1.4 19:33:46 10° WNW 19:35:14 20° NW 19:35:14 20° NW visible
26 Jan -2.5 18:45:48 10° WNW 18:48:47 29° N 18:49:24 27° NNE visible
27 Jan -2.6 17:57:46 10° WNW 18:00:51 32° N 18:03:34 12° NE visible
27 Jan -1.4 19:35:09 10° NW 19:36:30 20° NW 19:36:30 20° NW visible
28 Jan -2.5 18:47:15 10° WNW 18:50:15 29° N 18:50:40 28° NNE visible
29 Jan -2.4 17:59:18 10° WNW 18:02:17 28° N 18:04:50 12° ENE visible
29 Jan -1.6 19:36:18 10° NW 19:37:47 23° NW 19:37:47 23° NW visible
